Location: Bremen
(53.0793°N, 8.8017°E)
Time: 11:41:26
(UTC+01:00)

deb Explorer IX - Pass Details

Date: 13 December 2021
Orbit: 544 x 1082 km, 38.8° (Epoch: 14 January)

Event Time Altitude Azimuth Distance (km) Brightness Sun altitude
Rises 09:06:50 0° 243° (WSW) 3,454 ? 3.1°
Reaches altitude 10° 09:10:22 10° 224° (SW) 2,397 ? 3.5°
Maximum altitude 09:13:54 17° 185° (S) 1,831 ? 3.8°
Drops below altitude 10° 09:17:08 10° 145° (SE) 2,163 ? 4.2°
Sets 09:20:06 0° 125° (SE) 2,978 ? 4.5°
